[[{"header":{"parameterUnit":"m.s-1","parameterCategory":1,"la1":30.2991,"la2":30.254,"lo1":-89.0895,"lo2":-89.0444,"dy":0.0017,"dx":0.0017,"nx":28,"ny":28,"refTime":"2024-03-14T03:00:00:Z","depth":0,"parameterNumber":2,"parameterNumberName":"U-component_of_WINDS"},"data":[0,0,0,0,0,0,0,0,0,0,0,0,0,0,0,0,0,0,0,0,0,0,0,0,0,0,0,0,0,0,0,0,0,0,0,0,0,0,0,0,0,0,0,0,0,0,0,0,0,0,0,0,0,0,0,0,0,0,-2.6674,-2.6674,0,-2.6713,-2.6713,-2.6714,-2.6687,-2.6686,-2.6685,-2.6684,-2.6724,-2.6726,-2.6728,0,0,0,0,0,0,0,0,0,0,0,0,0,-2.6578,-2.658,-2.6674,-2.6674,-2.6675,-2.6713,-2.6713,-2.6714,-2.6687,-2.6686,-2.6685,-2.6683,-2.6723,-2.6726,-2.6729,0,0,0,0,0,0,0,0,0,0,0,0,0,-2.6618,-2.658,-2.6674,-2.6666,-2.6666,-2.6713,-2.6713,-2.6714,-2.6688,-2.6686,-2.6684,-2.6682,-2.6722,-2.6726,-2.6729,-2.6785,0,0,-2.6739,-2.674,0,0,0,0,0,0,0,0,-2.6616,-2.6622,-2.6667,-2.6667,-2.6667,-2.6693,-2.6694,-2.6738,-2.6688,-2.6679,-2.6684,-2.6682,-2.6715,-2.6719,-2.673,-2.6787,-2.6789,-2.6739,-2.6741,-2.6743,-2.6744,0,0,0,0,0,0,0,-2.6613,-2.662,-2.6689,-2.6668,-2.6667,-2.6661,-2.6665,-2.6702,-2.6707,-2.668,-2.6678,-2.6683,-2.6715,-2.6727,-2.6731,-2.679,-2.6739,-2.6742,-2.6744,-2.6745,-2.6895,-2.6897,0,0,0,0,0,0,-2.6611,-2.6618,-2.6688,-2.669,-2.6636,-2.6665,-2.6669,-2.6687,-2.6707,-2.6708,-2.6685,-2.6682,-2.6723,-2.6727,-2.6732,-2.68,-2.6743,-2.6746,-2.6748,-2.6893,-2.6896,-2.6898,0,0,0,0,0,0,-2.6609,-2.6618,-2.6686,-2.6654,-2.6662,-2.6668,-2.6688,-2.6688,-2.6701,-2.671,-2.6711,-2.6696,-2.6721,-2.6728,-2.6772,-2.6801,-2.6747,-2.675,-2.6891,-2.6894,-2.6897,-2.6935,0,0,0,0,0,0,-2.6606,-2.6617,-2.6638,-2.6654,-2.6664,-2.6725,-2.669,-2.669,-2.6706,-2.6703,-2.6721,-2.6722,-2.672,-2.6768,-2.6776,-2.6804,-2.6753,-2.6889,-2.6892,-2.6896,-2.6931,-2.6938,-2.6945,0,0,0,0,0,-2.6603,-2.6647,-2.6639,-2.6648,-2.669,-2.6727,-2.6733,-2.6729,-2.6709,-2.673,-2.6736,-2.6722,-2.6797,-2.6773,-2.6781,-2.6811,-2.6887,-2.6891,-2.6896,-2.6928,-2.6937,-2.6945,0,0,0,0,0,0,-2.6634,-2.6649,-2.664,-2.6691,-2.6708,-2.6723,-2.6749,-2.6739,-2.6762,-2.6758,-2.6753,-2.6758,-2.6804,-2.6813,-2.6785,-2.6867,-2.6839,-2.6845,-2.686,-2.6869,-2.6876,-2.6872,-2.6756,0,0,0,0,0,-2.6646,-2.6675,-2.6687,-2.673,-2.6739,-2.6743,-2.6759,-2.6755,-2.6772,-2.6779,-2.6789,-2.6807,-2.6834,-2.6852,-2.6878,-2.6933,-2.6936,-2.6958,-2.6965,-2.6971,-2.6976,-2.7005,-2.7015,-2.6913,-2.6913,-2.6913,0,0,-2.6673,-2.6685,-2.6703,-2.6737,-2.6749,-2.6779,-2.6749,-2.6782,-2.6804,-2.6784,-2.6827,-2.6835,-2.6854,-2.6904,-2.6927,-2.6913,-2.7005,-2.6976,-2.6981,-2.6983,-2.7011,-2.7021,-2.7029,-2.6916,-2.6915,-2.6915,0,0,-2.6735,-2.6748,-2.6785,-2.6799,-2.6818,-2.6821,-2.683,-2.6847,-2.6851,-2.6894,-2.688,-2.6907,-2.6954,-2.6968,-2.6982,-2.7052,-2.704,-2.7061,-2.7098,-2.7127,-2.7135,-2.7142,-2.7166,-2.7175,-2.7067,-2.7067,-2.7067,0,-2.6765,-2.6809,-2.6806,-2.6839,-2.6855,-2.6839,-2.6877,-2.6891,-2.6918,-2.6929,-2.6914,-2.6973,-2.6985,-2.7038,-2.7056,-2.7067,-2.7078,-2.7058,-2.7134,-2.7141,-2.7147,-2.7171,-2.718,-2.7069,-2.7069,-2.7069,-2.7068,0,-2.6845,-2.6876,-2.6904,-2.693,-2.6949,-2.6985,-2.6987,-2.7007,-2.7002,-2.7007,-2.7051,-2.7065,-2.7094,-2.7107,-2.7102,-2.7159,-2.715,-2.7134,-2.7105,-2.716,-2.7181,-2.719,-2.7073,-2.7072,-2.7071,-2.707,0,0,-2.6926,-2.6951,-2.6961,-2.6973,-2.6995,-2.7019,-2.7055,-2.7083,-2.7099,-2.712,-2.7149,-2.7191,-2.7176,-2.7192,-2.7189,-2.7215,-2.7269,-2.7196,-2.7196,-2.7208,-2.7333,-2.7343,-2.7354,-2.7262,-2.7264,-2.7265,-2.7331,0,-2.6989,-2.705,-2.7049,-2.7106,-2.7134,-2.7121,-2.7152,-2.7169,-2.7175,-2.72,-2.7207,-2.7236,-2.7215,-2.7225,-2.725,-2.7257,-2.7294,-2.7253,-2.7289,-2.729,-2.7283,-2.7365,-2.7376,-2.7437,-2.7339,-2.7341,-2.7342,0,-2.707,-2.7093,-2.7153,-2.717,-2.7182,-2.721,-2.7236,-2.7261,-2.728,-2.7283,-2.7301,-2.7294,-2.7331,-2.7303,-2.7353,-2.7325,-2.7341,-2.7347,-2.7349,-2.7351,-2.7318,-2.7368,-2.7457,-2.7466,-2.7355,-2.7354,-2.7353,0,-2.7122,-2.7168,-2.7209,-2.722,-2.7242,-2.7262,-2.7273,-2.729,-2.7307,-2.7331,-2.7342,-2.7369,-2.7384,-2.7405,-2.7407,-2.7386,-2.7458,-2.7429,-2.7461,-2.7461,-2.7475,-2.7473,-2.7566,-2.7487,-2.7487,-2.7487,-2.7487,0,-2.7191,-2.7228,-2.7233,-2.7258,-2.73,-2.7299,-2.734,-2.7348,-2.7364,-2.7392,-2.7383,-2.7409,-2.741,-2.7437,-2.7439,-2.748,-2.7487,-2.749,-2.749,-2.749,-2.7489,-2.7498,-2.7494,-2.7489,-2.7489,-2.7488,-2.7488,0,-2.7255,-2.726,-2.7304,-2.7322,-2.7327,-2.7357,-2.7372,-2.7397,-2.7403,-2.7437,-2.7446,-2.7454,-2.7486,-2.749,-2.7527,-2.7528,-2.7577,-2.7573,-2.7571,-2.7569,-2.76,-2.7597,-2.77,-2.7714,-2.7628,-2.7628,-2.7629,0,-2.7298,-2.7326,-2.7347,-2.7365,-2.7376,-2.7405,-2.7422,-2.7423,-2.7442,-2.7467,-2.7489,-2.7519,-2.7543,-2.7594,-2.7604,-2.7632,-2.7628,-2.7662,-2.7632,-2.7631,-2.7627,-2.7625,-2.7627,-2.7667,-2.7668,-2.7669,-2.767,0,-2.7374,-2.7375,-2.7401,-2.7428,-2.7449,-2.747,-2.749,-2.7505,-2.7509,-2.753,-2.7562,-2.7581,-2.7619,-2.7649,-2.7677,-2.7688,-2.768,-2.768,-2.7688,-2.7688,-2.7684,-2.7686,-2.7585,-2.7677,-2.7676,-2.7676,-2.7675,-2.7675,-2.7428,-2.7452,-2.7471,-2.75,-2.7515,-2.7534,-2.7558,-2.7567,-2.7594,-2.7624,-2.7624,-2.7659,-2.7678,-2.7715,-2.7729,-2.7756,-2.7745,-2.7758,-2.776,-2.7763,-2.7766,-2.7682,-2.7762,-2.7761,-2.7761,-2.7761,-2.7761,0,-2.7503,-2.7514,-2.7541,-2.7569,-2.7592,-2.7583,-2.7605,-2.7625,-2.7656,-2.7675,-2.7699,-2.7736,-2.7766,-2.7779,-2.7808,-2.7828,-2.7824,-2.7835,-2.7833,-2.7835,-2.7775,-2.7764,-2.7837,-2.7837,-2.7837,-2.7837,-2.7837,-2.7837,-2.7544,-2.7585,-2.7588,-2.7637,-2.7648,-2.7682,-2.7696,-2.7713,-2.7729,-2.777,-2.7795,-2.7803,-2.782,-2.7851,-2.7878,-2.7881,-2.7892,-2.7904,-2.7905,-2.7847,-2.784,-2.7832,-2.7822,-2.7906,-2.7907,-2.7963,-2.7964,-2.7964]},{"header":{"parameterUnit":"m.s-1","parameterCategory":1,"la1":30.2991,"la2":30.254,"lo1":-89.0895,"lo2":-89.0444,"dy":0.0017,"dx":0.0017,"nx":28,"ny":28,"refTime":"2024-03-14T03:00:00:Z","depth":0,"parameterNumber":3,"parameterNumberName":"V-component_of_WINDS"},"data":[0,0,0,0,0,0,0,0,0,0,0,0,0,0,0,0,0,0,0,0,0,0,0,0,0,0,0,0,0,0,0,0,0,0,0,0,0,0,0,0,0,0,0,0,0,0,0,0,0,0,0,0,0,0,0,0,0,0,2.3257,2.3256,0,2.3204,2.3204,2.3203,2.3173,2.3173,2.3172,2.3172,2.3117,2.3115,2.3114,0,0,0,0,0,0,0,0,0,0,0,0,0,2.3331,2.333,2.3257,2.3256,2.3256,2.3205,2.3204,2.3203,2.3173,2.3173,2.3172,2.3172,2.3117,2.3116,2.3114,0,0,0,0,0,0,0,0,0,0,0,0,0,2.3291,2.333,2.3257,2.3234,2.3232,2.3205,2.3204,2.3203,2.3173,2.3173,2.3172,2.3172,2.3118,2.3116,2.3114,2.3105,0,0,2.3107,2.3107,0,0,0,0,0,0,0,0,2.3293,2.3288,2.3238,2.3236,2.3233,2.3195,2.3209,2.317,2.3173,2.3195,2.3172,2.3172,2.3143,2.3139,2.3129,2.3102,2.31,2.3107,2.3106,2.3105,2.3105,0,0,0,0,0,0,0,2.3296,2.329,2.3236,2.3238,2.3235,2.3227,2.3221,2.3202,2.3171,2.3193,2.3191,2.3185,2.3141,2.3131,2.3128,2.3099,2.3107,2.3106,2.3104,2.3103,2.3063,2.3063,0,0,0,0,0,0,2.3302,2.3293,2.3238,2.3235,2.3263,2.3226,2.3219,2.3207,2.3171,2.3165,2.3185,2.3184,2.3135,2.313,2.3126,2.3113,2.3105,2.3103,2.3102,2.3063,2.3063,2.3063,0,0,0,0,0,0,2.3304,2.3298,2.324,2.3263,2.3255,2.3225,2.3212,2.3206,2.3196,2.3165,2.3159,2.3181,2.3135,2.3128,2.3111,2.3111,2.3102,2.31,2.3063,2.3063,2.3063,2.3088,0,0,0,0,0,0,2.3306,2.3299,2.3295,2.3263,2.3254,2.3226,2.3212,2.3206,2.3193,2.3191,2.3159,2.3154,2.3134,2.3114,2.3108,2.3108,2.3099,2.3062,2.3063,2.3063,2.3087,2.309,2.3091,0,0,0,0,0,2.3309,2.3303,2.3295,2.3288,2.3249,2.3226,2.3221,2.3199,2.3193,2.3189,2.3169,2.3155,2.3112,2.3112,2.3106,2.3105,2.3062,2.3063,2.3063,2.3087,2.3089,2.3091,0,0,0,0,0,0,2.3335,2.3299,2.3289,2.3272,2.3253,2.3221,2.3215,2.3202,2.3183,2.3181,2.3154,2.3147,2.3132,2.3117,2.3118,2.3095,2.3086,2.3085,2.3106,2.3108,2.311,2.3114,2.3097,0,0,0,0,0,2.3339,2.3324,2.3293,2.3281,2.3272,2.3246,2.3235,2.322,2.3198,2.3189,2.3168,2.3147,2.3129,2.3117,2.3099,2.3085,2.3078,2.3082,2.3084,2.3085,2.3085,2.3078,2.3079,2.3064,2.3064,2.3064,0,0,2.3346,2.3325,2.3316,2.3286,2.3269,2.3254,2.3238,2.3223,2.3212,2.3186,2.3169,2.3153,2.3127,2.3112,2.3104,2.3099,2.3088,2.3086,2.3087,2.3086,2.3078,2.308,2.3081,2.3065,2.3065,2.3065,0,0,2.3352,2.3334,2.3323,2.3307,2.3282,2.3265,2.3262,2.3233,2.3221,2.3203,2.3184,2.3171,2.314,2.3123,2.3111,2.3113,2.3099,2.3108,2.3118,2.3112,2.3113,2.3114,2.3115,2.3116,2.3108,2.3108,2.3108,0,2.3365,2.3342,2.3319,2.3306,2.3293,2.3271,2.326,2.3245,2.3215,2.3207,2.3201,2.3164,2.3145,2.3126,2.3127,2.3117,2.3114,2.3111,2.3114,2.3115,2.3116,2.3117,2.3118,2.3109,2.3109,2.3109,2.3109,0,2.3359,2.3343,2.3338,2.331,2.3297,2.3285,2.3261,2.3251,2.3237,2.3221,2.3203,2.3181,2.3158,2.3152,2.3138,2.3132,2.313,2.312,2.311,2.3119,2.312,2.312,2.3111,2.311,2.311,2.311,0,0,2.3378,2.334,2.3338,2.3327,2.3298,2.3286,2.3273,2.3252,2.3244,2.3224,2.3213,2.3189,2.318,2.3166,2.315,2.3145,2.3149,2.3135,2.3134,2.3139,2.3142,2.315,2.3151,2.314,2.314,2.314,2.3144,0,2.338,2.3357,2.3337,2.3321,2.3307,2.3287,2.3276,2.3258,2.3242,2.3228,2.3211,2.3195,2.3184,2.3175,2.3169,2.315,2.315,2.315,2.313,2.313,2.3137,2.3151,2.3159,2.3164,2.3144,2.3145,2.3145,0,2.338,2.3362,2.3345,2.332,2.3313,2.3304,2.3284,2.327,2.325,2.3239,2.3224,2.3209,2.3195,2.3187,2.3168,2.3168,2.3159,2.3149,2.3149,2.3146,2.3138,2.3149,2.3165,2.3166,2.3145,2.3145,2.3145,0,2.3397,2.3369,2.3355,2.3346,2.3315,2.3309,2.3297,2.3276,2.3265,2.3247,2.324,2.3221,2.321,2.3196,2.3176,2.3172,2.3159,2.3149,2.315,2.3151,2.3148,2.3149,2.3163,2.3142,2.3142,2.3142,2.3142,0,2.3401,2.3392,2.3363,2.3354,2.3344,2.3322,2.3311,2.3297,2.3279,2.3267,2.3248,2.3238,2.3212,2.3199,2.3183,2.317,2.3165,2.3157,2.3153,2.3159,2.316,2.3152,2.3152,2.3142,2.3142,2.3142,2.3142,0,2.3418,2.3398,2.3382,2.3356,2.3349,2.3342,2.3319,2.3311,2.3295,2.3281,2.3277,2.3252,2.3236,2.3215,2.3191,2.3181,2.317,2.3163,2.3178,2.3175,2.3178,2.3178,2.3188,2.3189,2.3167,2.3167,2.3168,0,2.3422,2.3415,2.3388,2.338,2.3368,2.3354,2.3343,2.3322,2.3312,2.3289,2.3283,2.3266,2.3251,2.3226,2.3206,2.3188,2.3181,2.3186,2.3178,2.3185,2.3182,2.3183,2.3183,2.3188,2.3188,2.3189,2.3189,0,2.3432,2.3423,2.3409,2.3392,2.338,2.3365,2.3349,2.3343,2.3319,2.3308,2.3292,2.3281,2.3258,2.3241,2.3222,2.3208,2.3195,2.3192,2.3191,2.3197,2.3206,2.3202,2.3183,2.3191,2.3191,2.3191,2.3191,2.3191,2.3443,2.3436,2.3417,2.3402,2.3388,2.3375,2.3366,2.335,2.3336,2.3317,2.3305,2.329,2.3271,2.3243,2.3231,2.3219,2.3213,2.3212,2.3212,2.3212,2.3215,2.3208,2.3215,2.3215,2.3214,2.3214,2.3214,0,2.3453,2.344,2.3427,2.3406,2.3395,2.3384,2.3367,2.3358,2.3345,2.3329,2.3315,2.3297,2.3281,2.3261,2.3244,2.3238,2.3232,2.3235,2.3235,2.3232,2.322,2.3222,2.324,2.324,2.324,2.324,2.324,2.324,2.3456,2.3444,2.3434,2.3415,2.3402,2.3388,2.3379,2.3367,2.3354,2.3335,2.3323,2.331,2.3292,2.3274,2.326,2.3254,2.3249,2.3254,2.3247,2.3235,2.3233,2.3231,2.3233,2.3253,2.3253,2.326,2.326,2.326]}]]